Wetterdaten: aktuell Dienstag, 01.09.2026 08:29
Datum Zeit Temp. A. Feuchte A. Luftdruck Regen Wind Richtung Richtung Taupunkt Windchill
01.09.2026 08:29 16,1 °C 79 % 1013,2 hPa 0,0 l/m² 0,5 km/h (0 Bft) S-SO 150 ° 12,5 °C 16,1 °C
01.09.2026 08:27 16,1 °C 79 % 1013,2 hPa 0,0 l/m² 3,1 km/h (1 Bft) S-SO 150 ° 12,5 °C 16,1 °C
01.09.2026 08:25 16,1 °C 79 % 1013,2 hPa 0,0 l/m² 3,1 km/h (1 Bft) S-SO 150 ° 12,5 °C 16,1 °C
01.09.2026 08:22 16,0 °C 79 % 1013,2 hPa 0,0 l/m² 0,2 km/h (0 Bft) S-SO 150 ° 12,4 °C 16,0 °C
01.09.2026 08:20 16,0 °C 79 % 1013,2 hPa 0,0 l/m² 0,4 km/h (0 Bft) S-SO 150 ° 12,4 °C 16,0 °C
01.09.2026 08:18 16,0 °C 79 % 1013,2 hPa 0,0 l/m² 4,5 km/h (1 Bft) S-SO 150 ° 12,4 °C 16,0 °C
01.09.2026 08:16 16,0 °C 79 % 1013,2 hPa 0,0 l/m² 4,5 km/h (1 Bft) S-SO 150 ° 12,4 °C 16,0 °C
01.09.2026 08:14 15,9 °C 79 % 1013,3 hPa 0,0 l/m² 4,3 km/h (1 Bft) S-SO 155 ° 12,3 °C 15,9 °C
01.09.2026 08:12 15,9 °C 79 % 1013,3 hPa 0,0 l/m² 3,3 km/h (1 Bft) S-SO 150 ° 12,3 °C 15,9 °C
01.09.2026 08:10 15,9 °C 79 % 1013,3 hPa 0,0 l/m² 3,3 km/h (1 Bft) S-SO 150 ° 12,3 °C 15,9 °C
01.09.2026 08:09 15,9 °C 79 % 1013,3 hPa 0,0 l/m² 6,1 km/h (2 Bft) S-SO±22.5° 155 ° 12,3 °C 15,9 °C
01.09.2026 08:07 15,9 °C 79 % 1013,3 hPa 0,0 l/m² 0,3 km/h (0 Bft) S-SO 165 ° 12,3 °C 15,9 °C
01.09.2026 08:05 15,9 °C 79 % 1013,3 hPa 0,0 l/m² 0,9 km/h (0 Bft) S-SO 165 ° 12,3 °C 15,9 °C
01.09.2026 08:03 15,9 °C 79 % 1013,3 hPa 0,0 l/m² 0,9 km/h (0 Bft) S-SO 165 ° 12,3 °C 15,9 °C
01.09.2026 08:01 15,9 °C 79 % 1013,3 hPa 0,0 l/m² 0,0 km/h (0 Bft) S-SO 165 ° 12,3 °C 15,9 °C
01.09.2026 07:59 15,8 °C 79 % 1013,3 hPa 0,0 l/m² 1,0 km/h (0 Bft) S-SO 165 ° 12,2 °C 15,8 °C
01.09.2026 07:57 15,8 °C 79 % 1013,3 hPa 0,0 l/m² 0,7 km/h (0 Bft) S-SO 165 ° 12,2 °C 15,8 °C
01.09.2026 07:55 15,8 °C 79 % 1013,3 hPa 0,0 l/m² 0,7 km/h (0 Bft) S-SO 165 ° 12,2 °C 15,8 °C
01.09.2026 07:53 15,8 °C 79 % 1013,3 hPa 0,0 l/m² 0,0 km/h (0 Bft) S-SO 165 ° 12,2 °C 15,8 °C
01.09.2026 07:51 15,8 °C 79 % 1013,3 hPa 0,0 l/m² 0,0 km/h (0 Bft) S-SO 165 ° 12,2 °C 15,8 °C
01.09.2026 07:49 15,8 °C 79 % 1013,3 hPa 0,0 l/m² 0,0 km/h (0 Bft) S-SO 165 ° 12,2 °C 15,8 °C
01.09.2026 07:47 15,8 °C 80 % 1013,3 hPa 0,0 l/m² 0,0 km/h (0 Bft) S-SO 165 ° 12,4 °C 15,8 °C
01.09.2026 07:45 15,8 °C 80 % 1013,3 hPa 0,0 l/m² 0,0 km/h (0 Bft) S-SO 165 ° 12,4 °C 15,8 °C
01.09.2026 07:43 15,8 °C 80 % 1013,3 hPa 0,0 l/m² 0,7 km/h (0 Bft) S-SO 165 ° 12,4 °C 15,8 °C
01.09.2026 07:41 15,8 °C 80 % 1013,3 hPa 0,0 l/m² 0,7 km/h (0 Bft) S-SO 165 ° 12,4 °C 15,8 °C
01.09.2026 07:38 15,8 °C 80 % 1013,3 hPa 0,0 l/m² 0,6 km/h (0 Bft) S-SO 165 ° 12,4 °C 15,8 °C
01.09.2026 07:36 15,7 °C 80 % 1013,3 hPa 0,0 l/m² 0,0 km/h (0 Bft) S-SO 165 ° 12,3 °C 15,7 °C
01.09.2026 07:34 15,7 °C 80 % 1013,3 hPa 0,0 l/m² 0,0 km/h (0 Bft) S-SO 165 ° 12,3 °C 15,7 °C
01.09.2026 07:32 15,7 °C 80 % 1013,3 hPa 0,0 l/m² 0,0 km/h (0 Bft) S-SO 165 ° 12,3 °C 15,7 °C
01.09.2026 07:30 15,7 °C 80 % 1013,3 hPa 0,0 l/m² 0,0 km/h (0 Bft) S-SO 165 ° 12,3 °C 15,7 °C
01.09.2026 07:28 15,7 °C 80 % 1013,3 hPa 0,0 l/m² 0,6 km/h (0 Bft) S-SO 165 ° 12,3 °C 15,7 °C
01.09.2026 07:26 15,6 °C 80 % 1013,3 hPa 0,0 l/m² 0,6 km/h (0 Bft) S-SO 165 ° 12,2 °C 15,6 °C
01.09.2026 07:25 15,6 °C 80 % 1013,3 hPa 0,0 l/m² 0,6 km/h (0 Bft) S-SO 165 ° 12,2 °C 15,6 °C
01.09.2026 07:23 15,6 °C 80 % 1013,3 hPa 0,0 l/m² 0,3 km/h (0 Bft) S 170 ° 12,2 °C 15,6 °C
01.09.2026 07:21 15,6 °C 80 % 1013,3 hPa 0,0 l/m² 0,0 km/h (0 Bft) S 170 ° 12,2 °C 15,6 °C
01.09.2026 07:19 15,6 °C 80 % 1013,3 hPa 0,0 l/m² 0,0 km/h (0 Bft) S 170 ° 12,2 °C 15,6 °C
01.09.2026 07:17 15,6 °C 80 % 1013,3 hPa 0,0 l/m² 0,0 km/h (0 Bft) S 170 ° 12,2 °C 15,6 °C
01.09.2026 07:15 15,6 °C 80 % 1013,3 hPa 0,0 l/m² 0,0 km/h (0 Bft) S 170 ° 12,2 °C 15,6 °C
01.09.2026 07:13 15,6 °C 80 % 1013,3 hPa 0,0 l/m² 0,0 km/h (0 Bft) S 170 ° 12,2 °C 15,6 °C
01.09.2026 07:11 15,6 °C 80 % 1013,3 hPa 0,0 l/m² 0,0 km/h (0 Bft) S 170 ° 12,2 °C 15,6 °C
01.09.2026 07:09 15,6 °C 80 % 1013,3 hPa 0,0 l/m² 0,1 km/h (0 Bft) S 170 ° 12,2 °C 15,6 °C
_ Min-Zeit 06:08 00:01 00:01 - 00:01 - - 06:08 06:08
Minimum _ 15,2 °C 76 % 1011,1 hPa - 0,0 km/h (0 Bft) - - 12,0 °C 15,2 °C
_ Max-Zeit 00:01 06:21 06:08 00:01 08:09 - - 00:42 00:01
Maximum _ 18,0 °C 82 % 1013,3 hPa 0,0 l/m² 6,1 km/h
S-SO (2 Bft)
- - 13,8 °C 18,0 °C
Durchschnitt _ 16,2 °C 80 % 1012,5 hPa #0,0 l/m² 0,2 km/h (0 Bft) S-SO - 12,7 °C 16,2 °C